Theta_e
310 311 312 313 314 314 316 317 316 315 316 313 309 312 304 303 301 312 314 315 312 303 296 298 296 295 298 303 303 305 302 301 303 300 301 298 301 301 299 299 298 299 298 296 294 295 292 292 290 294 294 296 298 299 297 298 296 298 295 297 294 293 288 287 288 290 290 290 291 291 290 291 291 291 292 292 290 292 291 290 289 287 286 284 285 282 287
309 310 310 311 312 313 313 314 316 316 315 313 312 307 303 304 303 303 314 316 312 301 290 290 292 295 299 300 300 304 302 301 300 299 301 299 299 298 299 300 301 300 300 297 294 297 291 294 294 293 295 294 297 297 296 298 295 297 294 293 297 289 289 289 285 284 286 288 290 290 291 290 290 290 291 292 293 291 286 285 287 286 287 287 285 281 286
308 309 309 310 311 311 311 311 312 314 316 316 311 303 303 301 301 301 306 313 309 298 298 294 292 293 294 296 296 298 300 303 303 301 300 302 300 300 297 300 301 299 300 298 299 298 297 292 295 296 294 294 294 295 297 298 296 298 298 297 299 292 290 288 283 280 279 279 280 282 284 285 289 290 291 291 291 289 287 285 286 283 286 287 286 286 290
308 308 308 309 309 309 309 309 309 310 313 315 311 305 301 298 291 298 301 305 305 303 304 300 295 292 293 293 295 297 296 301 303 304 301 303 302 301 301 300 301 299 297 296 295 294 297 297 291 293 292 293 293 294 294 296 297 295 295 294 295 289 290 291 289 288 286 289 289 291 292 288 285 286 287 288 290 290 289 290 286 284 285 285 288 289 288
308 308 308 308 308 308 308 308 308 308 308 311 311 304 301 299 294 291 292 300 300 299 301 298 297 292 296 290 295 294 296 299 299 304 298 302 301 300 299 298 296 296 296 295 295 296 294 295 293 292 293 292 292 292 293 293 293 293 293 295 292 288 288 290 292 291 293 291 291 292 293 288 289 287 286 289 288 288 287 286 285 289 286 283 290 290 287
308 308 307 307 307 307 307 308 308 308 307 307 308 299 299 293 294 298 299 292 289 293 295 298 296 297 297 294 298 295 295 296 294 299 302 303 302 297 296 297 299 299 296 297 291 293 292 293 290 293 292 291 292 292 292 291 292 292 290 294 292 289 288 292 291 289 292 288 289 290 293 292 292 290 288 287 289 287 285 286 290 288 286 285 289 290 288
309 307 307 306 306 306 306 306 306 307 306 306 303 298 296 297 293 294 298 293 293 294 298 300 297 296 297 295 296 294 295 295 298 297 295 298 297 299 292 294 297 298 299 297 293 293 288 288 292 289 288 289 290 289 291 293 291 292 290 291 288 290 288 290 290 288 290 289 288 289 288 289 288 290 291 291 289 288 288 288 289 288 288 290 291 288 290
309 308 307 306 306 305 305 305 306 306 306 306 301 296 294 291 294 290 295 293 291 292 294 297 297 294 296 292 294 295 295 294 298 298 296 292 295 300 296 297 298 298 298 297 294 295 296 296 290 292 291 288 291 290 292 290 289 290 289 290 291 290 287 290 289 287 287 288 287 287 288 287 286 287 289 290 289 288 287 287 287 288 287 289 287 287 287
308 308 308 307 306 305 305 304 305 304 305 300 297 294 294 294 294 298 293 288 290 291 291 293 295 293 295 292 294 295 295 295 298 297 300 298 295 297 295 298 299 298 297 296 296 299 299 298 298 296 294 290 293 292 290 292 287 289 289 289 290 291 287 289 290 286 286 286 286 286 286 286 285 286 288 287 286 284 285 285 288 286 285 287 286 285 286
307 307 308 307 306 305 304 304 304 303 305 299 296 292 296 296 297 297 296 287 292 289 288 290 292 289 294 295 294 294 295 297 299 294 298 298 300 300 300 300 299 294 295 295 297 300 301 300 298 298 298 298 296 295 293 294 291 288 289 290 289 290 288 285 287 284 285 284 287 285 283 284 282 283 287 290 287 289 288 288 289 288 289 285 284 285 291
305 306 306 307 307 306 305 304 303 303 302 297 295 293 294 294 293 292 293 288 286 286 288 287 287 290 291 294 294 295 293 296 297 291 289 295 295 293 297 299 296 294 294 298 299 297 295 293 292 295 294 295 294 293 294 294 294 293 289 287 287 287 287 287 289 284 283 277 284 284 282 276 280 288 295 292 289 290 287 286 286 288 289 288 290 290 288
305 306 306 306 307 306 305 304 304 303 303 300 299 296 296 297 294 292 288 285 286 286 286 286 287 287 288 292 293 292 293 292 293 294 293 290 292 292 296 297 297 291 292 294 295 296 296 296 295 294 291 290 291 292 293 292 292 294 293 290 286 286 286 287 287 284 278 280 282 280 276 280 284 280 284 289 294 292 289 290 290 289 289 288 286 285 286
304 305 306 306 306 307 306 305 304 303 302 299 299 295 296 297 295 291 288 286 285 285 285 285 286 287 288 290 290 290 292 292 293 293 292 291 289 290 289 292 295 292 294 295 297 297 290 285 285 285 285 286 287 287 287 288 288 290 293 293 289 286 286 287 284 282 280 278 281 275 278 283 280 281 282 284 289 291 290 288 291 292 290 290 289 289 288
303 304 305 305 305 306 306 305 304 303 302 300 298 297 295 296 293 290 289 286 286 286 286 286 285 285 285 286 287 286 287 287 287 290 288 290 291 289 289 288 289 292 292 296 292 291 286 286 285 285 283 285 285 284 283 282 281 284 287 289 291 289 287 287 283 284 279 279 280 282 285 284 282 280 281 285 286 286 287 284 288 292 291 289 289 289 288
303 303 304 304 305 306 306 306 305 303 302 301 297 296 295 295 297 293 291 289 285 286 287 285 286 286 286 286 287 285 285 285 286 285 285 286 286 285 286 287 287 291 292 293 287 287 285 285 280 280 281 280 278 280 284 281 282 281 282 284 286 289 286 287 284 282 282 278 277 277 280 278 284 284 285 288 287 290 290 287 286 284 287 288 288 287 288
303 303 303 304 305 305 306 306 305 304 302 301 297 295 296 297 297 296 292 288 287 283 286 290 290 287 286 286 287 286 286 285 285 285 285 285 284 285 286 287 287 289 290 288 286 286 285 282 279 282 278 281 284 280 278 281 279 281 282 283 285 285 286 285 285 282 280 279 278 278 276 280 285 285 281 282 284 288 287 285 281 285 283 287 288 287 288
302 302 303 303 304 305 305 306 306 304 303 301 295 295 295 296 294 294 291 288 288 285 287 288 289 288 286 284 286 285 286 285 286 285 284 284 283 283 285 286 288 288 288 287 285 285 283 280 281 281 281 282 280 279 280 278 278 277 282 284 283 283 283 284 281 280 282 280 279 277 282 282 283 282 280 283 284 287 287 276 278 284 282 285 287 287 287
302 302 302 303 304 304 305 305 306 305 303 301 297 294 294 295 293 296 290 288 286 286 287 288 289 286 286 287 286 286 286 285 285 286 284 284 282 283 284 286 285 287 287 286 286 285 284 282 280 280 279 282 281 284 275 281 275 278 277 280 279 281 280 282 279 282 282 281 280 282 282 285 279 280 281 282 281 286 279 275 281 280 281 283 287 287 285
301 302 302 302 303 303 304 304 305 305 304 301 297 295 292 294 294 295 290 288 287 285 288 285 287 288 287 287 286 287 287 287 287 285 282 283 283 285 285 285 287 284 286 284 286 284 284 282 283 283 281 280 281 279 284 279 278 279 280 278 278 278 278 278 281 279 280 281 279 279 283 285 280 279 281 282 284 277 277 284 282 281 280 282 285 284 282
301 301 301 301 302 303 303 303 304 305 304 302 298 293 294 294 294 295 292 287 287 286 285 285 287 287 287 287 285 285 285 286 286 286 284 282 285 285 286 283 285 285 284 286 282 285 283 281 282 281 279 281 281 283 277 279 280 279 281 283 282 281 278 277 279 281 278 278 278 278 275 282 280 281 281 281 281 282 284 281 281 283 283 282 283 284 282
300 301 301 301 301 302 303 303 303 304 304 302 299 294 292 293 293 292 294 292 287 284 285 287 284 289 287 287 290 291 289 287 287 286 286 285 287 287 281 282 285 284 282 285 281 282 283 280 279 279 282 282 282 281 277 279 277 281 281 281 281 285 278 277 280 285 277 278 275 277 284 281 282 284 282 283 284 287 283 284 281 280 281 282 283 283 282
299 300 301 301 301 301 302 303 303 303 304 303 299 296 291 294 292 292 292 292 288 283 284 287 286 287 289 289 291 292 291 291 291 291 286 285 286 286 285 285 286 285 284 283 280 279 280 278 279 276 278 277 277 279 279 277 276 278 275 278 278 285 283 284 281 285 281 280 284 283 282 282 284 285 283 285 285 283 284 285 284 282 281 282 283 283 282
299 300 300 301 301 301 301 302 303 303 303 303 300 295 292 291 291 294 293 287 288 289 288 286 287 288 292 290 288 287 286 289 289 289 292 289 286 286 284 285 285 286 284 286 286 284 283 279 277 281 276 279 281 276 275 279 278 277 277 281 282 279 281 282 283 282 281 280 281 281 280 282 283 283 284 284 282 280 283 284 283 283 283 282 283 284 282
298 299 300 300 300 301 301 301 302 302 303 304 301 296 295 293 293 293 291 290 285 283 286 287 285 283 284 285 287 287 289 288 292 291 291 293 287 285 285 285 286 284 283 284 285 285 280 278 279 279 278 280 280 276 277 276 276 279 278 280 280 279 279 281 281 283 280 278 279 279 281 282 283 283 281 281 280 280 281 282 284 284 282 282 283 283 282
298 299 300 300 300 300 301 301 301 302 303 303 301 299 294 291 293 293 289 283 283 284 279 282 283 287 288 288 289 287 288 290 291 289 289 291 291 288 286 286 285 286 285 283 282 283 281 280 277 276 278 283 284 278 282 280 278 281 277 280 279 280 282 279 280 278 279 278 278 278 278 279 282 283 282 281 281 280 279 281 281 282 282 282 281 281 281
298 299 299 300 300 300 301 301 300 301 302 303 301 295 292 291 293 294 291 291 289 286 281 280 283 287 287 288 287 289 290 289 289 288 289 289 291 291 285 283 283 284 282 283 285 283 278 275 273 273 279 280 286 278 275 282 281 282 281 282 282 282 282 276 280 277 277 276 278 278 279 280 281 280 281 282 282 281 280 280 280 279 280 280 279 280 280
297 298 299 299 300 300 300 301 300 301 302 302 300 297 296 294 294 293 290 289 286 281 283 281 284 284 285 286 289 286 288 289 288 288 287 287 287 287 286 285 282 282 283 280 280 278 275 275 277 278 279 277 280 278 279 278 280 278 276 280 279 279 278 280 278 275 275 276 278 278 276 276 280 280 281 282 282 282 281 280 280 280 279 279 279 279 279
296 297 298 299 299 299 301 300 301 301 301 301 300 298 297 293 293 295 296 294 291 283 282 282 283 283 287 282 288 287 287 288 288 286 286 285 286 286 285 284 283 282 282 283 279 278 278 279 278 278 277 277 278 274 278 277 278 275 276 278 280 279 280 278 277 278 277 280 279 281 283 281 282 284 284 283 282 281 281 280 281 281 281 280 280 279 278
296 296 297 298 298 298 300 300 300 301 301 300 295 293 292 294 294 296 297 294 289 285 283 283 283 282 280 283 288 286 287 287 286 285 285 285 285 285 285 284 283 284 283 282 282 281 280 280 281 277 277 281 279 272 276 271 272 274 280 281 280 282 283 282 281 280 279 280 280 281 281 281 281 281 282 282 281 281 281 282 282 282 282 281 281 282 281
295 296 296 297 299 300 299 300 300 300 300 295 289 287 285 287 293 293 296 294 292 288 283 280 277 280 284 282 281 283 284 285 286 285 284 283 284 284 284 284 284 285 284 282 282 278 280 279 279 279 279 282 278 275 272 270 270 275 281 280 281 280 280 282 282 282 281 281 280 281 281 281 279 280 280 281 281 282 282 282 282 281 281 280 280 280 282
295 295 296 296 298 299 299 299 301 301 298 291 289 283 282 280 288 294 296 294 294 289 285 284 280 282 278 281 283 282 283 284 283 283 283 284 284 283 285 285 283 285 281 281 281 281 281 275 278 278 281 282 280 275 273 271 270 274 279 280 281 280 279 280 280 280 281 279 279 280 280 279 279 280 280 279 278 280 281 281 281 281 281 279 279 280 280
295 295 295 296 297 298 299 299 300 300 295 290 287 287 287 289 292 294 296 295 293 288 285 280 281 279 279 283 280 283 284 284 284 282 282 284 281 284 282 285 283 286 285 282 282 281 278 280 278 278 279 283 280 270 272 272 273 276 279 279 280 279 280 280 280 279 279 279 279 279 279 278 278 280 281 282 280 279 280 281 281 280 279 279 280 279 279
295 295 295 296 296 298 298 300 300 298 293 295 297 294 293 294 297 297 297 294 289 286 288 284 278 281 280 279 282 281 283 282 281 282 279 285 280 282 279 284 282 282 288 283 278 277 280 279 280 278 279 282 277 274 272 274 277 281 279 279 278 278 279 280 281 280 280 279 282 279 279 280 280 280 282 282 279 279 278 279 278 277 276 275 275 276 275
295 295 295 295 296 297 298 298 300 298 297 292 287 289 289 296 297 297 296 291 287 287 286 282 278 277 276 284 277 281 286 281 279 282 277 283 280 281 277 281 281 279 280 280 280 278 276 278 276 277 280 275 277 274 271 276 280 280 279 279 279 278 278 278 279 279 280 279 280 282 283 283 281 280 279 279 278 277 277 277 276 275 275 275 276 278 278
295 295 295 295 296 297 297 297 296 293 288 288 289 291 293 298 298 297 293 290 284 281 281 280 283 277 275 274 273 279 284 282 278 282 279 282 284 278 278 275 277 277 278 284 276 276 276 276 279 276 273 276 274 270 274 278 279 280 280 279 279 278 276 276 277 279 279 279 279 279 280 279 280 280 280 279 278 277 276 275 276 277 276 277 277 278 277
294 294 295 295 295 297 294 295 291 287 285 285 286 294 297 299 298 292 286 287 287 283 281 280 282 278 279 273 271 275 286 280 282 282 280 282 279 282 279 278 275 278 280 278 276 278 275 281 279 271 277 273 271 275 277 279 279 280 280 280 280 279 279 280 279 278 277 278 277 278 278 277 277 279 280 278 277 275 276 275 274 273 276 278 278 278 276
294 294 295 294 293 289 285 285 288 288 287 291 294 299 297 293 289 288 287 287 286 286 282 282 279 279 281 276 275 276 283 274 283 279 281 278 276 282 280 278 274 280 278 276 276 276 278 285 275 272 274 273 275 280 281 281 281 280 280 281 281 280 281 280 279 278 276 274 273 275 276 275 276 276 277 277 277 275 272 274 275 274 273 274 276 277 277
294 294 290 288 285 282 282 282 283 289 296 296 295 289 287 288 282 283 284 282 284 285 281 283 280 276 276 278 273 282 282 278 283 276 279 281 278 276 281 279 277 280 269 274 277 282 278 277 275 274 275 280 281 281 281 281 282 282 282 280 279 280 280 279 277 276 273 271 272 273 270 270 273 275 275 275 276 274 275 277 277 277 277 277 277 277 276
293 288 286 286 284 281 283 284 292 297 294 292 288 283 280 282 281 278 276 280 283 277 281 282 278 276 278 276 277 286 280 280 278 279 275 281 276 272 280 272 278 279 271 275 276 284 273 275 275 275 273 277 278 280 283 283 282 281 280 281 280 279 279 279 280 279 278 279 280 279 277 277 276 276 276 275 276 276 276 276 275 275 275 276 275 275 272
286 282 282 282 282 283 287 292 297 292 289 284 283 281 276 279 277 272 280 274 274 277 282 275 280 276 280 279 278 277 285 281 275 276 277 280 285 276 277 276 277 276 268 274 274 280 273 271 276 274 273 277 278 281 280 280 280 279 278 279 278 278 277 279 278 280 281 281 281 278 277 279 279 279 277 276 275 275 273 273 274 274 273 274 272 272 272
285 285 284 281 283 285 287 291 288 285 282 278 277 277 276 272 272 275 276 273 273 274 280 279 278 275 279 279 281 277 284 283 280 281 279 276 281 278 273 273 278 270 268 272 275 271 271 272 274 274 274 279 279 278 278 276 276 274 271 269 272 273 274 275 275 274 273 275 274 273 271 270 270 270 269 270 272 272 272 269 269 269 269 269 269 267 262
286 286 285 287 287 286 286 283 281 279 277 277 274 270 272 273 274 269 273 272 272 274 275 278 275 277 276 280 279 281 279 280 280 279 276 273 280 275 272 271 271 268 267 273 272 269 273 270 272 272 278 275 268 267 270 270 266 265 265 263 263 263 265 269 271 266 261 268 269 266 260 259 257 256 255 257 261 262 261 261 262 258 258 255 254 256 257
292 289 287 285 284 281 281 278 278 277 272 270 269 267 270 267 270 271 270 271 270 274 276 277 276 282 278 279 278 279 280 282 279 276 275 274 279 274 270 270 270 267 271 270 269 269 268 269 270 276 271 265 261 259 259 258 259 260 263 261 259 260 262 264 264 259 255 255 256 257 254 254 253 252 252 252 254 253 251 252 252 252 253 253 254 254 255
287 286 281 279 279 278 280 271 278 273 269 270 269 266 267 267 268 264 264 268 269 272 276 275 276 278 275 280 278 277 278 280 280 273 272 274 272 270 271 268 270 273 274 269 269 269 270 268 274 274 267 264 259 257 256 256 255 257 260 260 259 258 259 262 263 262 260 257 255 253 253 253 252 252 251 250 251 252 251 252 252 253 253 254 254 253 253
282 278 277 276 274 278 275 268 273 270 268 269 271 265 268 268 270 268 270 271 273 275 276 278 280 279 276 275 277 278 281 275 280 274 271 274 270 272 269 269 270 266 267 267 266 265 265 266 270 268 266 263 259 255 255 254 254 254 254 256 257 255 255 256 257 256 256 255 253 254 252 253 252 251 250 250 251 251 252 252 252 253 254 254 254 254 254
280 277 275 271 269 272 271 268 269 266 268 269 265 265 268 270 271 270 269 268 272 276 277 278 278 278 274 274 276 275 274 274 274 272 273 271 270 268 270 271 270 268 266 267 264 265 268 271 269 266 259 256 255 254 253 253 253 252 254 254 254 253 253 253 253 255 255 255 254 253 252 252 252 251 250 250 249 250 250 251 253 254 254 253 252 252 253
276 275 273 273 270 270 270 267 267 268 267 266 265 268 272 271 270 272 268 270 276 277 278 278 279 278 275 272 272 272 270 271 271 273 273 268 268 270 274 270 267 268 266 263 263 264 267 269 265 258 254 254 253 252 251 252 252 251 251 252 252 252 252 252 252 252 253 254 253 253 252 252 251 251 251 251 250 249 250 251 252 253 252 251 252 252 252
274 275 273 269 268 269 266 264 263 264 263 263 263 265 268 271 272 271 268 270 278 278 277 276 274 275 273 273 275 272 269 267 270 270 272 271 272 267 267 265 265 267 265 264 268 268 267 263 258 255 253 252 251 251 251 251 251 250 251 251 251 251 251 250 250 250 251 250 251 251 251 250 250 250 250 250 250 250 249 249 250 250 251 251 251 251 251
275 271 269 266 264 264 264 264 266 266 264 264 262 267 270 272 270 270 269 271 278 277 278 277 274 274 270 273 271 272 270 272 268 269 271 268 266 265 266 262 263 261 266 268 268 265 261 255 254 252 251 250 251 250 250 250 250 250 250 249 250 250 250 250 250 250 249 250 250 250 250 250 250 250 250 251 250 250 249 249 249 249 250 251 251 251 251
271 268 267 265 265 264 262 263 269 265 264 264 266 267 269 271 270 269 268 272 274 276 278 279 277 274 270 270 268 269 269 269 267 270 266 265 265 264 263 260 263 264 266 263 261 256 254 253 253 251 251 249 250 250 249 249 250 249 250 250 250 250 250 250 250 250 249 249 250 250 250 252 251 251 251 250 250 250 249 249 248 248 248 249 250 251 250
271 267 263 263 263 264 265 267 267 264 265 265 265 263 265 269 270 268 266 270 275 275 272 269 268 267 267 266 266 266 268 272 269 267 267 264 264 263 263 262 263 263 259 254 253 253 252 251 251 250 249 248 249 249 249 249 248 248 249 248 249 250 249 249 249 249 248 249 250 250 249 249 250 249 250 250 251 251 250 250 248 247 248 248 249 250 251
268 264 263 264 263 262 264 265 263 261 261 260 260 261 263 265 262 264 264 266 274 275 270 264 266 265 265 265 267 266 267 268 269 267 264 263 260 262 259 259 259 255 254 254 254 252 252 251 250 248 248 248 249 248 247 247 247 247 247 246 246 247 248 249 248 248 249 249 248 248 249 249 250 251 252 252 253 252 251 250 248 247 247 249 247 246 247
Wind_Speed
10 8 7 5 2 1 4 10 12 11 9 5 2 4 4 7 8 8 26 27 27 19 13 11 13 13 17 11 8 3 7 13 9 13 11 12 10 4 7 13 10 7 7 6 8 13 7 14 12 7 10 10 15 3 14 13 15 9 2 7 2 6 3 4 2 3 0 2 2 1 1 1 4 8 4 5 14 11 8 3 5 8 5 4 3 4 2
9 9 7 5 3 2 1 2 6 12 15 6 4 6 5 2 2 7 17 30 23 21 17 15 17 17 19 15 13 10 11 12 14 15 16 10 10 14 10 2 14 11 6 5 10 13 8 11 12 7 5 5 3 8 11 19 12 14 11 12 12 6 5 6 2 2 2 2 2 4 3 3 10 12 11 10 4 3 2 4 0 4 10 7 7 14 4
8 8 7 6 3 3 5 4 2 6 15 11 5 4 2 0 1 2 6 19 20 16 13 17 17 19 20 18 20 16 10 10 17 13 13 14 13 11 15 14 6 8 4 13 11 13 20 2 11 11 6 5 2 3 12 15 12 5 2 5 12 8 6 11 9 12 11 9 12 15 13 15 6 2 5 11 16 12 6 8 6 9 4 13 10 10 3
7 6 6 4 3 4 3 3 4 3 4 14 8 5 1 6 6 3 4 8 15 13 15 16 17 18 19 17 19 19 18 9 13 17 16 15 13 14 2 4 10 12 8 14 13 12 11 15 3 8 6 3 2 2 4 10 10 3 5 12 16 6 6 14 17 15 15 13 0 4 11 8 10 8 13 15 14 12 10 2 5 13 5 10 16 10 5
6 6 5 4 3 5 4 3 3 3 5 5 10 5 4 0 6 4 7 5 10 14 15 14 13 18 20 16 12 23 23 15 2 13 11 17 17 10 11 8 11 15 17 17 15 13 14 10 3 13 10 1 1 1 3 1 2 8 6 13 7 1 4 17 20 18 16 1 1 5 15 14 16 11 14 14 15 15 16 14 14 10 4 15 8 9 10
8 6 6 4 3 2 3 4 2 3 3 4 3 7 5 7 2 6 1 2 5 11 16 20 21 19 18 13 10 19 22 19 13 8 16 10 15 12 3 12 23 24 24 16 10 10 13 11 16 8 3 7 3 3 1 7 3 5 2 4 5 5 12 16 14 20 13 1 3 5 6 11 12 17 14 16 15 14 21 19 10 10 13 14 10 15 13
11 7 7 6 5 4 2 3 2 1 1 2 3 6 2 1 1 1 1 4 2 5 4 15 17 20 18 11 15 13 19 23 22 11 7 8 10 20 14 21 22 21 19 17 13 15 11 14 14 6 8 10 7 4 3 5 3 5 5 9 3 3 11 2 8 14 12 8 5 5 6 4 1 10 15 15 17 20 19 18 16 15 15 16 6 9 13
11 10 7 7 7 5 5 3 3 3 3 1 3 1 3 5 6 5 1 1 2 3 4 5 15 17 19 13 16 16 18 22 17 7 12 9 14 17 23 21 21 19 16 17 16 20 25 23 16 11 12 4 7 11 8 6 2 5 8 6 4 8 6 9 5 5 10 7 4 5 6 7 7 7 9 13 14 10 17 16 13 12 13 11 0 7 12
9 10 10 8 7 7 5 4 4 4 2 1 1 0 1 2 3 2 6 2 5 3 2 3 10 13 13 14 13 12 17 20 18 14 9 18 12 13 25 27 16 15 16 17 22 23 21 18 13 15 18 18 15 12 6 11 10 9 5 4 3 6 4 4 4 8 10 6 8 6 2 1 5 10 14 13 11 10 12 10 12 13 14 12 8 12 14
8 8 10 10 8 8 6 4 3 2 2 2 2 2 2 1 0 1 5 4 3 5 1 3 2 12 12 12 17 11 19 19 12 9 5 7 10 10 18 17 13 10 15 19 22 20 10 8 3 10 12 1 3 3 5 15 15 10 10 2 6 9 6 7 8 10 12 3 9 8 4 1 6 20 25 15 12 11 8 11 14 17 15 12 13 15 10
11 9 8 10 11 9 8 6 4 3 1 3 3 2 1 2 2 4 2 6 1 5 5 5 6 2 4 2 7 5 3 7 12 15 3 3 3 3 5 12 13 10 16 13 5 2 4 7 7 5 6 4 5 5 8 6 11 15 14 5 4 5 9 9 5 9 2 2 7 8 7 9 18 5 10 20 18 20 16 19 19 17 15 10 8 6 3
11 10 9 8 11 12 10 8 6 4 3 2 2 3 3 3 4 3 3 7 3 4 7 5 8 2 5 5 2 2 5 2 3 2 11 3 1 3 4 8 8 10 0 6 13 12 10 8 12 11 11 9 8 4 6 13 8 6 12 15 10 13 10 9 4 5 4 5 10 7 13 20 1 4 5 8 19 19 22 21 18 17 14 8 2 2 6
12 11 10 8 9 13 12 10 8 6 4 3 2 3 3 2 5 3 3 3 3 6 6 4 3 3 4 2 3 5 2 3 3 4 4 5 2 4 3 2 8 2 7 9 14 11 7 4 7 6 5 5 6 6 6 2 3 1 6 8 11 11 11 5 4 4 4 4 10 9 12 2 0 4 3 3 6 3 10 13 13 11 13 15 14 12 8
13 12 11 10 9 11 13 12 10 8 7 6 3 2 4 5 5 3 3 2 2 1 1 4 3 5 5 5 4 2 4 1 3 4 3 4 3 3 1 1 1 2 0 1 7 10 5 1 3 3 1 2 2 1 2 6 6 2 2 3 4 12 6 6 7 5 8 6 10 8 6 4 5 2 3 7 8 9 12 8 11 16 13 10 12 14 8
15 13 12 12 10 9 13 15 13 11 9 6 4 3 3 2 5 5 2 1 1 1 2 4 5 5 7 3 6 4 2 3 4 1 1 2 3 1 3 3 3 1 3 3 3 4 3 4 3 6 3 6 8 8 4 3 2 3 3 2 3 5 13 7 8 6 5 4 4 3 4 11 5 3 4 8 4 4 7 5 5 2 6 10 11 12 10
16 15 13 12 11 10 12 16 15 14 11 8 4 3 4 1 1 5 4 4 2 2 5 6 4 6 5 2 6 5 4 4 3 3 3 1 2 1 4 3 4 4 2 5 3 3 3 5 5 9 7 7 1 6 4 6 1 1 1 2 3 3 1 1 7 1 6 5 8 7 9 5 3 2 1 1 1 8 7 3 6 2 7 11 14 12 7
15 16 15 14 12 13 14 15 17 16 14 11 5 5 4 5 3 6 4 1 1 4 3 4 4 4 4 3 2 1 2 2 2 3 3 3 3 2 1 4 4 4 2 4 1 2 3 2 0 1 2 1 5 5 5 3 6 1 4 4 5 4 2 4 4 4 5 7 6 8 2 2 0 2 2 2 2 3 5 1 4 4 8 5 6 8 6
14 16 16 15 14 14 14 14 17 18 16 14 5 4 3 5 3 3 5 3 3 3 3 4 7 4 5 3 4 1 4 3 3 1 2 2 3 2 3 1 2 3 3 2 3 3 3 2 5 3 3 0 1 2 4 6 5 5 7 8 5 4 1 2 8 6 7 8 6 2 3 1 1 2 3 3 2 2 7 7 1 1 2 3 5 5 5
14 15 15 16 15 14 14 13 12 17 17 14 4 3 1 4 5 1 6 3 2 3 3 1 2 2 2 4 3 3 2 2 3 5 3 2 2 2 4 1 0 3 1 3 2 4 5 2 2 1 3 2 1 4 2 5 4 3 7 7 3 1 3 1 1 5 6 6 4 4 2 2 4 2 3 4 5 5 8 1 1 8 5 4 4 5 7
14 14 15 16 16 15 15 14 12 13 19 17 9 5 2 4 4 3 5 4 2 1 2 6 5 7 5 6 5 4 1 1 2 3 4 4 1 6 2 2 2 1 2 1 3 2 2 4 3 1 1 3 2 2 2 1 3 7 4 3 4 8 7 5 7 2 3 1 5 2 8 1 7 10 4 4 4 2 4 3 2 1 5 7 5 6 8
15 14 14 15 17 15 15 15 14 13 17 20 12 5 1 1 4 1 1 4 3 2 2 2 1 4 5 4 4 6 9 7 7 4 2 3 7 5 6 5 7 5 5 6 6 4 3 2 2 2 1 2 3 3 3 3 3 4 2 3 1 2 5 2 2 4 4 7 8 6 1 6 12 15 9 9 3 3 8 7 3 1 4 6 4 5 8
16 15 15 16 17 16 15 16 15 14 16 21 15 5 3 1 3 1 4 5 2 1 1 1 1 2 1 1 2 3 3 2 5 3 6 4 3 4 0 3 5 3 2 3 3 2 2 2 2 2 3 1 4 3 1 4 4 2 5 0 3 6 7 2 5 4 6 4 2 1 1 9 12 2 4 6 5 2 7 7 8 8 5 5 4 7 7
16 15 15 16 16 17 16 16 16 17 15 22 16 7 7 6 3 3 2 5 2 2 1 2 1 1 1 2 1 1 1 1 6 4 4 5 4 2 1 2 2 1 1 1 1 2 3 5 4 2 2 1 7 4 2 2 0 4 6 5 1 6 2 2 2 2 2 3 2 2 2 3 7 4 3 5 6 2 3 6 4 6 7 9 9 8 7
17 17 16 16 16 15 16 17 17 17 16 19 17 9 7 7 8 6 5 3 2 2 1 1 1 4 6 9 5 1 1 2 4 4 1 2 5 3 2 3 1 2 1 1 1 3 3 2 2 1 2 3 5 2 8 7 6 2 1 1 2 2 2 1 2 1 3 4 4 2 2 1 9 5 3 4 4 4 4 5 6 7 7 6 4 5 8
17 17 16 17 18 16 16 18 17 16 17 16 18 7 7 5 5 9 10 7 5 5 4 3 7 2 1 2 5 2 5 1 3 5 4 4 2 2 4 2 2 2 3 4 2 4 2 4 1 1 4 3 6 6 1 3 2 7 4 2 2 2 6 2 2 0 4 1 3 1 3 3 4 2 4 4 4 2 3 1 1 1 3 4 5 4 5
18 17 17 17 17 17 16 17 19 17 17 18 15 9 9 10 11 6 3 4 4 2 4 3 3 2 0 4 3 3 4 6 5 4 3 3 3 4 7 3 3 3 4 2 1 3 3 3 2 1 4 3 1 3 1 2 1 3 5 4 2 3 9 4 4 4 3 3 2 3 1 1 5 4 6 3 5 7 5 3 1 3 6 5 3 1 4
19 18 17 17 17 17 16 17 18 18 17 17 11 8 9 8 10 13 12 9 6 1 1 4 2 1 2 6 1 5 4 6 5 5 5 3 6 5 6 7 6 3 4 3 2 4 2 2 1 2 2 1 2 1 1 1 2 3 3 3 3 4 4 3 4 2 3 5 7 8 4 2 4 7 11 10 7 6 5 4 4 4 6 5 8 5 2
20 19 17 17 17 18 17 17 17 17 18 17 10 9 7 9 11 13 11 10 10 3 4 4 3 3 3 1 4 5 5 6 7 8 6 5 5 7 6 5 5 3 2 3 1 1 1 4 2 1 2 1 3 0 2 2 3 2 2 5 6 7 7 7 5 7 3 4 8 9 2 2 5 9 8 6 7 7 9 9 10 9 8 8 9 7 4
20 19 19 18 17 18 17 18 19 18 19 14 6 5 3 4 6 11 12 5 6 4 5 3 1 1 4 3 5 5 2 6 9 8 7 6 6 6 7 7 5 5 3 2 2 2 1 0 3 4 2 4 5 2 3 1 2 7 10 6 7 5 3 7 4 7 2 2 9 9 5 5 3 5 7 7 9 11 12 10 7 7 9 10 10 10 11
21 20 19 19 18 17 18 18 19 19 18 5 5 2 3 2 5 8 9 7 6 4 4 4 4 4 1 4 1 1 3 2 7 10 10 7 7 5 5 6 3 2 1 3 3 2 2 2 1 2 3 4 3 3 3 2 1 8 1 5 8 4 4 4 6 6 4 4 6 9 8 4 2 3 3 2 6 9 8 10 10 9 8 10 12 10 8
21 21 20 19 19 18 18 19 18 20 11 8 5 3 5 6 7 10 11 8 4 5 3 2 3 1 3 1 2 3 5 5 3 5 7 5 4 3 2 3 1 1 2 1 2 2 2 1 2 2 0 1 3 3 5 4 2 6 5 9 9 7 7 7 4 2 5 5 4 4 3 2 2 3 2 3 5 7 7 5 6 6 8 6 11 10 8
22 22 21 20 20 19 19 20 21 17 10 9 11 7 4 1 4 13 13 9 7 4 4 5 3 3 2 2 0 1 5 5 5 2 2 2 2 1 1 1 3 1 3 2 1 1 0 3 2 4 4 3 4 2 2 2 5 8 5 10 6 6 7 6 5 2 3 7 8 5 1 3 4 8 6 7 9 8 9 9 4 3 6 5 4 4 5
22 22 22 21 20 19 19 20 20 14 9 10 6 6 2 0 21 24 18 11 4 1 2 2 4 3 2 4 4 3 3 4 2 2 2 2 4 2 2 1 1 1 3 2 1 3 1 2 2 3 2 1 3 2 3 7 13 4 7 6 5 8 9 6 5 4 6 7 8 8 6 8 8 11 10 2 5 9 9 7 3 4 3 3 4 4 4
23 22 22 21 21 20 19 21 21 18 15 8 2 9 3 8 20 23 17 9 3 1 1 3 4 3 2 3 4 3 5 6 6 6 3 1 2 3 2 2 0 3 3 4 2 3 2 1 1 2 2 1 0 3 3 11 17 5 4 3 6 5 4 6 6 9 8 8 7 7 7 3 3 3 3 4 5 2 2 1 4 4 5 5 7 8 7
24 23 22 21 21 19 20 20 11 7 7 6 5 2 7 17 18 19 18 10 8 3 2 1 2 4 3 2 2 4 4 4 6 7 5 3 2 4 2 3 2 3 3 4 1 2 3 3 3 3 3 1 2 3 8 13 10 7 9 7 6 7 6 5 10 10 7 7 7 8 7 1 2 4 6 6 5 5 6 4 4 5 5 6 9 8 5
24 23 22 20 20 16 9 10 4 4 4 6 5 10 19 19 20 9 4 2 2 5 6 5 7 7 7 7 6 3 7 2 2 4 2 3 2 0 1 2 2 3 0 2 5 3 3 3 4 1 2 3 8 9 9 8 9 11 10 10 9 11 11 11 7 7 8 6 7 8 5 2 6 10 6 2 4 4 7 4 3 3 6 10 10 9 4
22 21 21 18 8 3 6 3 2 6 5 5 10 18 19 13 8 4 0 1 2 1 4 7 9 10 12 5 1 2 8 5 5 4 5 4 5 4 3 2 4 3 3 1 3 4 3 2 4 3 3 7 9 12 12 12 12 11 11 10 8 8 5 6 9 9 5 4 3 5 3 3 6 5 7 7 6 4 4 6 8 8 9 12 10 7 9
22 19 8 3 4 7 3 5 5 7 19 23 21 10 3 5 4 4 3 4 2 3 2 1 7 2 3 6 4 7 6 3 6 5 5 4 6 2 2 3 3 3 3 5 4 4 3 2 3 6 8 9 10 12 12 14 12 8 5 2 5 5 5 8 8 9 6 2 3 4 3 3 7 7 6 8 6 7 10 9 7 8 7 7 8 6 4
15 7 5 4 5 7 7 3 8 27 17 7 1 3 1 1 5 3 4 2 3 3 3 5 7 3 7 5 2 2 3 8 7 4 6 7 5 3 4 4 5 4 2 1 4 7 2 3 3 4 6 8 11 15 15 9 2 1 1 3 6 7 8 8 11 12 11 10 10 9 11 10 10 11 8 8 6 5 6 5 5 6 8 7 7 5 4
5 8 6 4 8 5 0 11 29 15 5 4 2 3 4 1 4 3 2 4 1 2 3 5 3 3 7 12 13 6 3 7 9 11 7 6 2 5 2 3 3 4 4 5 3 3 6 6 6 5 6 9 14 8 5 5 4 3 3 2 3 6 6 9 8 9 9 9 3 2 5 6 5 5 4 6 6 5 5 6 6 5 5 7 5 4 5
9 5 6 7 4 3 3 8 5 3 3 2 1 1 3 1 1 1 4 2 1 3 1 4 4 3 1 2 6 8 1 4 1 2 3 3 2 6 1 4 2 4 2 3 1 4 2 2 5 6 9 8 1 3 6 5 3 5 7 8 5 4 2 0 3 1 1 2 1 1 0 0 0 1 1 1 3 3 3 4 5 5 5 4 4 2 2
5 4 2 5 4 6 2 3 1 3 1 0 3 3 1 2 2 3 1 6 6 3 2 4 8 10 9 9 6 5 1 0 2 2 3 2 2 4 3 1 2 4 2 1 3 2 3 4 5 5 5 2 5 6 7 5 7 7 8 9 7 7 7 4 2 6 8 4 3 4 4 5 6 6 5 4 2 1 1 1 0 2 2 3 4 5 4
19 12 6 5 1 2 1 3 2 3 5 2 2 2 0 4 3 5 3 1 2 2 4 3 1 5 2 2 4 2 3 2 2 1 3 4 1 3 2 1 2 2 3 1 3 3 3 5 6 7 4 3 5 5 6 4 5 5 4 7 7 6 6 6 6 6 7 9 8 7 6 8 6 5 4 5 3 6 6 5 3 3 3 6 7 6 5
8 6 1 1 3 3 2 6 2 4 1 1 5 7 4 3 1 2 2 4 3 2 4 11 11 14 9 0 5 4 2 2 2 3 2 0 3 2 2 2 2 1 3 2 1 3 4 2 6 1 3 2 2 4 6 7 7 7 5 6 8 9 8 7 6 6 7 5 6 6 6 6 4 6 5 7 7 6 4 4 4 4 4 5 7 7 5
7 3 2 3 3 2 3 2 1 2 4 3 3 3 6 10 8 7 6 2 3 8 5 5 8 11 10 2 3 2 1 3 1 4 3 3 3 0 3 3 1 2 3 3 1 1 2 5 2 3 2 2 2 4 5 5 5 6 7 6 8 10 9 9 8 6 5 6 5 4 8 5 7 7 8 7 6 5 6 6 2 4 5 6 6 7 6
7 6 4 4 3 0 2 1 2 1 2 2 3 5 5 3 6 7 1 1 7 8 11 9 8 11 8 2 5 4 2 3 3 1 2 2 4 1 1 1 2 3 1 3 4 6 7 3 2 3 2 1 4 4 4 4 5 5 4 4 6 6 6 5 5 5 5 4 3 5 5 4 4 4 6 5 5 7 6 5 3 4 5 9 8 7 5
3 1 1 1 3 1 1 4 4 1 1 2 2 4 5 5 3 5 2 1 9 8 10 6 7 6 10 3 4 3 2 1 3 1 3 3 2 1 2 3 2 2 6 5 4 5 5 2 1 2 1 2 4 4 4 4 4 5 4 3 4 6 7 6 5 5 4 4 4 5 5 4 5 5 4 6 6 6 6 5 6 4 6 9 6 5 4
3 0 2 3 3 3 3 1 2 3 1 1 1 0 3 5 9 5 1 1 9 10 12 11 10 6 6 2 3 3 1 0 3 2 1 2 2 4 2 2 0 1 2 5 8 3 2 1 2 0 2 2 3 5 5 6 7 7 7 6 7 6 7 6 6 5 4 4 3 4 4 5 4 5 5 6 6 5 5 6 6 6 6 7 7 6 7
3 2 3 3 1 1 2 1 4 6 3 2 1 1 5 9 8 6 2 1 7 10 8 9 5 5 3 0 3 2 1 1 4 3 2 2 2 4 4 5 3 1 5 3 1 2 2 2 1 1 1 3 3 4 4 4 5 5 6 5 5 5 5 4 4 4 4 4 3 5 5 4 4 5 7 6 7 5 4 4 6 6 5 6 8 8 8
4 5 6 4 3 4 2 1 5 6 2 2 3 5 4 9 9 3 2 3 3 7 7 8 4 5 1 2 2 1 1 0 2 1 3 2 2 1 4 1 4 5 2 1 2 2 2 1 2 1 2 3 3 3 4 4 4 4 4 4 3 3 3 2 2 3 4 4 4 5 5 4 4 4 6 7 5 4 4 6 7 7 6 5 6 7 8
2 6 3 3 1 1 1 5 7 8 5 4 3 3 3 5 4 3 5 1 6 7 4 3 2 4 2 2 2 3 1 2 4 2 4 3 1 3 3 4 2 1 2 3 2 2 2 2 2 1 2 2 2 3 3 3 3 4 3 3 2 0 0 2 2 3 4 4 4 4 7 6 4 6 5 5 6 6 7 7 7 7 6 6 5 6 7
3 5 3 4 5 6 4 6 9 9 5 2 4 4 3 5 5 4 5 2 4 10 6 2 4 3 3 3 2 2 2 2 2 2 2 0 1 3 2 0 2 3 3 2 3 2 3 1 1 1 1 2 2 3 3 3 3 2 1 1 1 2 1 2 2 2 3 4 6 5 7 6 5 5 4 4 5 7 10 6 4 6 6 4 5 6 7
Wind_Direction
340 343 350 354 357 29 242 227 214 207 161 154 225 159 232 210 231 107 149 153 154 163 197 182 188 207 227 237 246 135 185 210 181 195 199 216 221 226 220 212 209 221 184 153 178 169 203 176 208 185 220 233 205 148 180 144 165 158 84 58 88 87 172 205 235 56 359 175 182 160 251 360 260 248 243 198 209 195 217 248 138 192 148 204 211 252 249
331 338 341 342 35 79 67 234 227 206 177 186 138 196 229 247 154 172 168 160 156 177 186 187 197 211 223 216 225 219 220 194 195 209 192 198 191 218 217 212 221 223 138 154 188 175 224 206 196 222 175 235 66 151 174 156 176 176 191 175 163 155 213 187 167 215 194 222 179 206 142 194 226 217 196 212 205 153 56 89 30 239 205 178 174 239 159
318 331 328 327 6 58 72 89 62 222 200 188 164 214 175 108 353 291 220 171 164 188 186 194 195 203 211 207 217 218 224 211 208 191 203 202 215 202 223 216 161 214 168 207 212 189 206 225 207 221 173 210 88 271 177 187 186 198 346 147 152 184 158 165 197 200 206 200 203 209 197 206 187 347 154 194 200 176 146 217 185 234 178 175 213 237 90
300 308 319 322 356 17 62 91 82 70 245 194 182 205 120 179 225 171 221 236 176 203 192 194 188 196 205 212 220 219 224 213 213 197 213 197 211 218 139 127 172 206 181 212 208 214 226 224 174 189 208 185 257 181 232 194 194 130 141 146 164 188 164 193 202 206 213 220 39 17 84 85 200 196 188 199 202 196 198 214 191 217 125 196 219 216 165
273 289 306 327 335 337 331 356 69 104 43 240 203 211 209 176 198 187 193 211 236 194 188 192 189 207 191 208 194 214 218 212 177 195 218 200 204 207 205 179 183 208 203 211 219 207 207 225 160 205 178 43 110 356 174 152 354 163 173 179 124 72 191 214 217 222 231 329 182 220 157 186 206 175 203 195 193 194 194 201 214 110 134 245 194 124 238
262 262 270 280 303 304 312 327 324 52 37 61 182 224 177 220 240 174 227 143 210 208 200 188 199 206 192 213 196 214 212 211 215 180 222 187 192 196 263 225 212 207 208 203 211 183 214 191 220 174 157 106 186 92 205 196 158 133 109 273 206 188 217 222 208 234 227 98 226 197 211 201 194 193 188 191 191 185 199 214 212 156 204 232 122 172 209
259 251 258 261 260 253 244 278 309 329 357 167 164 225 258 193 107 205 13 208 321 267 351 200 196 202 195 210 215 214 214 215 212 189 164 184 188 197 214 215 217 217 203 194 206 185 186 229 221 162 180 175 141 151 65 253 154 156 143 187 211 130 240 155 194 231 226 217 183 177 199 177 246 211 206 199 189 195 196 208 207 198 227 235 223 185 229
281 252 238 246 253 246 241 228 251 276 321 189 178 214 174 199 170 204 118 78 280 346 343 215 202 208 198 207 207 214 215 222 214 191 174 200 210 196 219 220 210 207 205 198 208 203 207 208 200 195 157 185 190 196 187 138 109 201 184 171 243 161 232 137 153 212 227 201 172 160 196 173 216 232 222 214 204 184 196 206 207 216 242 247 188 259 250
305 269 242 242 247 246 237 236 236 275 290 149 148 254 200 332 335 133 134 227 246 254 250 251 214 215 204 211 214 215 218 225 213 214 200 206 194 192 214 221 207 199 204 203 218 219 217 222 214 179 170 197 195 171 218 153 155 171 166 172 181 178 229 63 155 217 234 184 180 192 198 326 251 251 235 211 150 164 196 204 209 198 216 227 243 247 249
293 310 269 239 240 244 243 228 232 258 283 148 129 157 217 209 251 318 121 199 192 207 121 249 277 224 216 210 214 209 219 223 205 232 209 217 229 212 218 223 217 208 205 214 220 225 222 230 195 181 195 179 135 165 147 163 160 172 189 131 170 195 169 170 184 211 224 192 179 179 122 214 280 238 225 197 182 186 171 218 208 206 196 200 212 233 241
283 285 302 264 234 235 239 226 229 247 213 163 141 181 225 117 98 10 51 187 198 176 198 225 215 323 10 243 225 219 309 221 207 209 236 199 207 37 237 221 213 217 217 223 238 66 89 77 77 58 80 100 131 137 154 174 177 166 165 159 184 159 187 207 173 226 179 173 161 132 165 211 230 274 162 187 195 196 193 212 211 212 197 209 207 225 132
272 278 284 301 259 234 229 226 221 215 187 216 135 148 189 117 76 69 65 198 206 150 192 209 202 197 186 262 274 215 218 85 211 278 220 165 186 20 182 220 204 222 216 101 107 103 89 68 67 66 59 61 63 63 152 163 183 179 164 170 173 180 185 209 155 202 175 151 133 169 207 228 45 306 331 215 200 190 202 215 207 208 213 220 264 167 176
272 264 267 280 279 240 226 219 220 211 186 154 149 155 207 141 120 124 154 187 212 169 187 225 151 160 180 211 190 233 289 32 64 45 59 124 108 57 20 213 210 183 143 133 121 112 96 100 56 68 48 50 42 44 34 84 126 272 211 175 162 183 185 161 196 147 58 153 178 204 223 39 44 5 2 58 62 175 202 238 237 217 206 210 225 225 198
268 273 271 266 276 255 222 217 212 211 183 157 146 183 150 154 119 121 150 152 223 134 163 68 132 157 161 174 162 137 70 20 6 58 145 341 76 62 55 47 307 266 135 38 85 114 105 99 139 123 46 57 53 173 188 57 29 6 197 238 220 190 178 187 198 169 186 195 200 235 22 308 160 102 191 168 165 165 176 208 230 210 203 199 213 226 196
267 265 261 262 257 266 230 213 209 203 191 172 115 100 163 242 137 136 165 94 224 152 209 194 184 178 154 156 150 137 143 162 142 112 58 24 84 311 283 313 311 309 271 114 61 43 142 127 134 149 153 150 196 202 93 216 88 15 4 317 324 206 199 192 197 209 142 150 188 287 250 243 221 166 186 215 3 130 175 198 256 85 199 187 191 213 204
265 261 260 256 253 255 250 215 204 196 192 169 117 142 185 207 106 102 127 153 163 233 224 207 106 144 152 172 183 169 169 157 154 113 123 93 80 57 307 326 299 307 26 64 79 114 146 157 182 175 196 185 126 101 216 146 175 356 14 12 125 39 52 341 213 175 136 199 216 209 216 243 87 136 107 10 200 125 109 89 259 140 176 185 187 204 187
260 263 259 252 242 240 250 230 200 191 186 169 159 153 181 179 154 140 116 68 168 213 21 104 119 114 107 88 79 308 190 152 161 144 186 167 148 111 353 335 331 29 43 91 151 116 115 94 59 103 29 164 145 185 73 121 146 126 81 93 116 143 176 171 218 200 197 201 219 226 229 260 81 206 128 208 258 149 101 247 267 162 202 184 173 195 168
263 259 258 254 246 236 234 236 212 191 184 180 149 162 182 152 187 129 84 139 160 241 201 208 141 150 183 182 164 153 96 98 65 28 62 81 116 144 161 107 71 356 336 131 181 147 162 147 162 174 157 73 181 100 183 149 156 180 169 162 150 168 191 199 216 211 210 211 235 1 275 230 140 150 185 190 272 125 178 223 116 163 160 172 180 191 135
260 258 257 257 254 243 237 237 226 203 182 173 117 60 306 176 175 118 110 124 143 217 167 57 334 136 124 52 85 137 166 167 155 118 125 103 238 146 111 121 23 141 219 179 152 178 182 193 26 80 149 204 193 162 148 120 186 81 135 115 92 46 97 317 90 225 218 224 234 245 296 206 137 334 129 224 132 182 199 184 6 147 181 200 199 146 157
259 257 254 252 253 248 240 235 226 210 186 170 153 167 195 121 154 167 155 164 163 166 160 187 179 179 201 149 151 133 145 76 229 132 177 154 101 120 88 106 284 63 94 254 159 226 154 199 171 95 84 158 211 130 44 249 56 158 177 223 180 179 140 192 185 188 61 92 251 237 246 136 136 122 62 302 171 280 96 111 69 74 166 162 203 186 174
254 254 259 256 249 246 244 238 227 215 195 176 164 134 159 30 152 68 129 138 131 126 252 197 310 211 159 186 200 174 165 184 173 163 182 122 178 167 171 215 164 158 179 169 189 185 177 168 145 160 276 103 195 87 201 133 250 287 88 190 167 190 124 205 216 187 171 188 205 208 252 129 172 149 175 188 189 152 140 126 134 139 173 182 173 201 194
253 253 251 250 250 246 242 238 230 221 200 181 166 157 163 154 116 120 111 77 98 147 280 84 123 193 263 277 204 172 171 160 190 137 134 132 218 198 360 68 154 156 176 117 71 48 17 120 64 107 160 164 360 202 183 125 215 173 359 242 174 213 190 182 189 169 169 200 202 42 272 157 180 95 349 130 132 115 156 127 145 150 214 201 194 192 184
254 250 249 251 248 244 240 238 231 226 209 181 170 178 185 154 160 221 115 78 46 69 126 36 57 109 216 246 156 183 256 274 117 99 128 132 185 214 167 161 173 162 50 345 179 120 141 132 185 148 54 233 175 158 340 224 219 145 176 235 322 5 51 358 97 273 83 36 137 34 45 162 166 59 359 110 124 84 91 141 136 232 175 171 186 192 173
253 250 248 245 245 243 242 238 234 229 223 193 175 176 184 167 163 128 66 69 114 128 94 349 138 203 197 211 175 327 128 150 197 155 125 134 185 174 23 274 135 58 323 193 313 130 158 86 175 78 181 206 100 154 177 222 225 163 78 235 221 250 89 79 192 304 127 235 102 156 150 127 198 154 61 23 60 139 151 181 187 172 159 185 262 155 168
255 254 250 245 240 239 239 241 234 230 225 210 189 175 99 106 164 164 157 160 180 160 181 190 223 238 59 51 100 121 223 174 71 99 99 77 94 205 194 139 143 165 165 143 205 89 55 118 169 116 191 236 156 219 313 165 212 163 183 215 115 267 163 71 200 332 200 359 121 247 330 284 303 241 159 178 158 160 184 278 322 28 157 153 134 107 103
253 255 252 245 241 237 237 236 237 231 225 216 192 158 173 169 177 164 64 44 67 100 188 196 217 80 274 111 173 199 152 127 147 131 142 149 125 119 133 124 75 41 94 92 5 117 125 65 104 151 163 259 113 184 208 235 46 141 203 213 157 119 128 210 170 153 99 26 312 275 313 243 210 209 253 189 163 159 170 194 144 117 137 145 125 257 159
249 250 253 250 243 237 233 237 234 233 226 223 203 182 178 166 165 168 172 165 124 355 184 230 168 155 199 208 176 82 121 139 115 119 101 102 115 97 112 116 112 121 106 77 27 104 57 110 138 185 193 211 85 157 77 123 157 164 199 215 143 123 206 157 111 116 206 183 178 174 127 226 196 211 215 194 185 168 167 164 191 185 154 161 166 201 166
247 246 248 250 244 238 233 229 229 230 232 224 202 188 181 164 181 191 186 178 188 201 167 156 132 219 141 299 212 147 131 130 138 132 138 121 130 130 132 136 126 135 156 136 116 138 169 174 215 66 57 261 96 15 116 348 29 347 259 221 174 187 183 148 181 203 207 193 157 187 135 85 194 200 206 172 157 163 173 192 196 199 192 173 163 159 176
244 244 243 245 245 240 234 230 227 225 223 218 122 131 74 226 212 197 186 156 97 98 89 101 30 90 156 196 90 74 10 141 142 139 132 127 131 152 135 153 150 148 92 57 91 101 126 108 98 147 166 230 101 222 129 197 213 222 230 153 155 234 151 175 132 80 19 178 171 172 156 176 189 193 207 180 169 170 198 213 203 184 178 179 196 196 188
242 242 241 243 246 241 233 229 222 223 219 150 94 95 157 207 200 209 194 161 141 115 135 145 134 226 360 41 37 130 86 102 134 133 137 148 148 158 161 143 130 127 109 153 172 138 179 127 197 287 295 319 129 176 105 224 236 253 232 127 194 121 78 128 148 143 187 173 172 179 183 147 47 173 190 167 164 178 189 216 207 193 184 176 192 210 221
240 240 240 240 240 240 234 229 221 219 172 145 149 137 170 211 192 195 178 157 155 115 158 124 154 99 44 277 107 171 143 119 116 130 134 130 140 136 144 98 73 168 131 152 88 177 121 91 172 208 55 293 118 129 167 172 227 273 208 159 189 160 147 164 202 148 138 134 115 96 70 101 128 72 309 203 201 186 208 252 239 209 189 176 202 204 204
238 238 238 237 236 238 235 230 225 211 165 174 185 199 186 251 112 144 159 165 127 134 141 125 166 135 200 147 359 287 104 104 99 92 88 137 112 158 72 300 163 123 163 128 185 77 157 199 122 177 142 191 105 93 100 142 220 243 116 164 180 121 152 161 183 172 77 130 112 77 23 216 190 177 209 193 179 185 198 217 219 142 176 188 199 221 228
234 237 236 235 234 237 235 232 227 209 170 192 68 43 53 265 153 152 166 147 101 188 172 151 167 181 149 184 114 344 149 108 66 135 153 265 145 140 122 14 62 85 286 129 250 163 235 100 168 138 200 44 117 164 156 221 232 186 131 162 131 153 178 184 174 188 164 187 161 175 200 203 197 214 229 151 134 178 195 215 154 116 124 157 214 230 236
232 233 234 233 233 235 236 232 230 212 190 174 196 217 259 156 162 158 154 144 133 136 108 150 169 128 132 113 87 213 168 156 163 157 126 133 149 107 162 116 287 152 278 172 249 68 329 97 118 160 88 32 107 93 237 242 240 198 160 159 165 117 112 127 192 206 206 189 224 220 217 193 81 95 131 176 193 195 202 111 132 163 198 202 226 221 221
228 229 230 232 232 234 234 231 227 208 185 191 210 211 154 166 163 159 156 158 140 184 128 241 157 133 124 47 127 187 140 130 153 177 141 153 96 135 187 95 262 190 227 102 51 158 161 190 175 116 200 154 95 211 231 243 245 225 226 199 201 129 102 153 234 210 189 202 207 234 241 205 179 217 213 187 158 174 172 208 206 192 216 235 229 235 221
227 226 229 229 233 235 237 235 211 148 150 201 213 164 161 166 163 142 59 18 102 156 160 188 167 184 160 176 188 220 139 81 121 83 136 137 84 102 98 141 184 220 58 117 189 184 172 193 139 199 204 154 211 214 224 223 230 232 221 220 196 183 198 194 143 161 198 199 208 231 249 256 228 242 252 214 155 178 192 190 204 207 221 235 240 236 230
221 222 222 228 229 226 213 194 145 191 215 168 143 134 117 88 34 66 346 350 351 21 154 168 170 186 186 189 81 212 147 158 172 113 167 139 154 166 141 200 193 165 92 86 219 191 200 106 90 182 220 204 224 230 228 224 225 227 232 224 203 201 197 91 146 141 155 206 235 262 268 257 261 262 259 243 208 168 159 196 202 192 212 226 234 233 228
217 216 206 172 179 215 212 189 210 149 118 126 119 94 125 131 146 143 154 187 262 66 329 109 186 158 31 121 176 188 125 172 134 140 149 159 140 186 174 183 220 166 129 211 216 142 93 103 194 204 232 240 242 237 232 230 232 238 272 71 138 179 150 135 139 127 131 112 286 255 278 288 259 254 230 242 218 197 211 215 212 213 221 229 229 227 236
206 196 193 180 194 216 206 222 158 134 131 148 33 117 88 172 139 170 184 151 141 173 237 178 184 154 153 116 77 118 147 164 140 169 154 191 127 218 164 167 242 124 240 173 249 151 134 212 196 213 244 240 247 241 238 238 266 85 137 153 151 167 170 170 175 170 182 198 208 194 182 201 221 238 226 233 238 220 224 224 222 221 222 233 241 234 222
151 196 169 155 209 201 271 154 139 122 133 149 277 125 130 172 148 189 157 97 132 262 153 178 163 150 184 164 152 167 233 164 161 177 164 160 146 166 200 115 251 136 190 197 197 120 130 180 193 189 254 242 237 248 61 117 154 168 159 161 149 171 178 179 197 212 210 227 204 137 190 214 224 226 213 210 218 220 224 225 227 232 226 234 244 232 230
190 170 171 199 196 127 156 139 94 77 112 120 75 15 116 100 245 169 121 170 167 197 159 142 114 115 170 89 146 145 142 64 23 64 110 156 244 92 67 174 233 89 243 171 201 82 116 118 189 203 231 243 31 88 126 78 48 48 37 16 21 21 6 226 194 232 255 248 42 100 44 304 186 357 20 267 211 218 218 211 220 232 234 244 250 244 37
177 156 134 88 114 117 101 32 84 101 59 247 141 173 150 136 78 33 198 163 194 170 226 157 167 167 178 161 159 109 79 77 109 106 120 159 239 131 197 50 11 119 185 180 96 71 120 161 193 223 237 55 10 358 46 65 16 9 7 9 12 8 5 17 71 47 24 60 81 79 44 49 54 43 22 7 20 49 59 26 41 19 29 27 34 49 32
111 117 134 115 134 146 173 136 218 149 156 137 104 82 44 109 167 154 196 293 338 102 166 49 109 76 8 62 56 14 141 173 126 169 104 153 106 55 105 153 151 139 200 49 76 104 157 174 209 221 82 33 358 354 14 342 321 318 356 23 15 4 13 22 54 67 25 35 45 53 38 61 56 36 14 17 52 73 40 39 40 67 44 53 43 45 40
125 118 81 187 138 254 155 192 168 79 29 182 144 150 168 137 261 59 133 201 171 138 196 153 171 147 150 79 130 141 87 22 115 95 42 348 93 168 132 153 182 243 58 54 112 151 199 223 223 122 152 134 24 3 355 350 349 328 346 10 16 9 9 30 40 58 53 56 61 65 70 73 74 48 39 34 30 95 97 61 51 70 83 88 64 48 35
145 158 137 132 151 199 138 216 34 127 174 213 147 165 160 173 186 172 185 203 109 161 118 115 144 136 132 163 68 5 131 165 258 108 195 139 86 177 127 174 135 34 104 162 108 3 9 256 214 121 169 125 27 357 344 344 343 341 307 326 16 10 13 20 23 29 32 30 15 33 51 60 73 62 48 50 36 43 76 76 41 75 72 81 80 62 29
176 170 153 135 130 5 141 123 106 260 278 145 185 192 183 220 141 165 188 94 119 133 138 150 127 121 110 298 123 159 97 122 95 148 128 75 121 162 204 73 68 107 74 97 139 196 217 209 148 168 95 306 330 329 334 332 355 327 352 38 355 356 13 15 24 40 34 32 42 60 74 72 70 86 73 50 37 25 27 29 39 88 99 84 68 73 36
79 10 109 121 109 192 72 151 209 189 132 155 208 178 140 124 95 106 159 142 123 126 109 99 106 124 123 141 91 29 57 69 110 242 79 83 136 165 25 111 183 175 150 190 206 226 233 198 139 62 3 325 307 319 323 337 344 3 7 4 353 1 7 16 19 28 11 46 70 76 78 79 82 81 101 80 46 28 23 33 44 59 88 97 100 92 77
122 184 119 116 151 154 143 225 127 114 42 101 263 325 128 137 114 97 328 227 134 127 126 125 119 101 71 298 68 122 121 164 90 317 148 136 64 57 115 63 197 215 178 174 216 197 140 73 107 56 335 346 331 333 344 352 355 0 3 360 356 352 356 1 4 6 15 39 62 75 82 80 93 91 81 96 89 51 35 26 45 62 86 93 93 92 98
86 82 95 123 106 98 70 112 121 65 350 348 296 90 129 102 96 89 25 309 135 129 126 120 127 88 98 96 97 117 72 260 108 182 81 39 119 175 153 182 165 218 247 179 199 81 90 53 14 11 354 4 358 9 344 349 346 343 348 344 339 329 334 339 354 357 15 41 65 84 86 93 103 104 106 92 84 63 31 38 44 44 63 95 103 102 99
65 40 28 38 58 24 297 235 83 77 347 19 40 54 32 96 97 81 309 98 130 111 98 73 59 83 148 110 93 66 90 11 131 80 77 179 175 140 80 144 222 189 220 101 87 68 54 1 7 23 12 349 347 5 349 330 338 330 317 315 316 329 326 338 6 27 20 50 75 85 98 100 89 82 94 94 97 112 80 52 30 42 51 59 89 97 99
54 84 95 339 29 139 147 144 152 140 128 82 63 17 19 87 89 97 348 231 147 113 59 112 143 108 107 48 94 110 208 138 86 144 153 179 183 123 172 188 226 162 81 51 62 40 24 346 21 343 342 333 319 324 338 325 306 289 303 299 294 286 309 15 29 51 47 41 69 79 71 76 80 93 98 106 110 100 81 57 38 25 37 35 42 68 80
57 64 38 16 28 21 14 76 52 59 66 44 42 347 3 62 356 320 325 292 172 138 150 178 95 98 86 138 186 158 46 55 147 110 94 297 34 145 202 143 34 43 14 18 25 14 14 5 37 346 316 299 312 310 289 286 274 264 255 287 314 43 58 55 52 56 84 76 69 91 91 93 103 103 107 98 85 77 66 67 19 13 30 49 22 22 52